Year,Month,Day,Hour,Minute,Value (Times are PST for temperature in C)
2012,05,17,00,00,9.70
2012,05,17,00,01,9.70
2012,05,17,00,02,9.70
2012,05,17,00,03,9.70
2012,05,17,00,04,9.70
2012,05,17,00,05,9.70
2012,05,17,00,06,9.70
2012,05,17,00,07,9.70
2012,05,17,00,08,9.70
2012,05,17,00,09,9.70
2012,05,17,00,10,9.70
2012,05,17,00,11,9.70
2012,05,17,00,12,9.70
2012,05,17,00,13,9.60
2012,05,17,00,14,9.60
2012,05,17,00,15,9.60
2012,05,17,00,16,9.60
2012,05,17,00,17,9.60
2012,05,17,00,18,9.60
2012,05,17,00,19,9.60
2012,05,17,00,20,9.60
2012,05,17,00,21,9.60
2012,05,17,00,22,9.60
2012,05,17,00,23,9.60
2012,05,17,00,24,9.60
2012,05,17,00,25,9.60
2012,05,17,00,26,9.60
2012,05,17,00,27,9.60
2012,05,17,00,28,9.60
2012,05,17,00,29,9.60
2012,05,17,00,30,9.50
2012,05,17,00,31,9.50
2012,05,17,00,32,9.50
2012,05,17,00,33,9.50
2012,05,17,00,34,9.50
2012,05,17,00,35,9.50
2012,05,17,00,36,9.50
2012,05,17,00,37,9.50
2012,05,17,00,38,9.50
2012,05,17,00,39,9.50
2012,05,17,00,40,9.50
2012,05,17,00,41,9.50
2012,05,17,00,42,9.60
2012,05,17,00,43,9.60
2012,05,17,00,44,9.60
2012,05,17,00,45,9.60
2012,05,17,00,46,9.70
2012,05,17,00,47,9.70
2012,05,17,00,48,9.70
2012,05,17,00,49,9.70
2012,05,17,00,50,9.70
2012,05,17,00,51,9.70
2012,05,17,00,52,9.70
2012,05,17,00,53,9.70
2012,05,17,00,54,9.70
2012,05,17,00,55,9.70
2012,05,17,00,56,9.70
2012,05,17,00,57,9.70
2012,05,17,00,58,9.70
2012,05,17,00,59,9.70
2012,05,17,01,00,9.70
2012,05,17,01,01,9.70
2012,05,17,01,02,9.70
2012,05,17,01,03,9.70
2012,05,17,01,04,9.70
2012,05,17,01,05,9.70
2012,05,17,01,06,9.70
2012,05,17,01,07,9.70
2012,05,17,01,08,9.70
2012,05,17,01,09,9.70
2012,05,17,01,10,9.70
2012,05,17,01,11,9.70
2012,05,17,01,12,9.70
2012,05,17,01,13,9.70
2012,05,17,01,14,9.70
2012,05,17,01,15,9.70
2012,05,17,01,16,9.70
2012,05,17,01,17,9.70
2012,05,17,01,18,9.70
2012,05,17,01,19,9.70
2012,05,17,01,20,9.70
2012,05,17,01,21,9.70
2012,05,17,01,22,9.70
2012,05,17,01,23,9.70
2012,05,17,01,24,9.70
2012,05,17,01,25,9.70
2012,05,17,01,26,9.70
2012,05,17,01,27,9.70
2012,05,17,01,28,9.70
2012,05,17,01,29,9.70
2012,05,17,01,30,9.70
2012,05,17,01,31,9.60
2012,05,17,01,32,9.60
2012,05,17,01,33,9.60
2012,05,17,01,34,9.60
2012,05,17,01,35,9.50
2012,05,17,01,36,9.50
2012,05,17,01,37,9.50
2012,05,17,01,38,9.50
2012,05,17,01,39,9.40
2012,05,17,01,40,9.40
2012,05,17,01,41,9.40
2012,05,17,01,42,9.40
2012,05,17,01,43,9.40
2012,05,17,01,44,9.30
2012,05,17,01,45,9.30
2012,05,17,01,46,9.30
2012,05,17,01,47,9.30
2012,05,17,01,48,9.20
2012,05,17,01,49,9.20
2012,05,17,01,50,9.20
2012,05,17,01,51,9.20
2012,05,17,01,52,9.20
2012,05,17,01,53,9.20
2012,05,17,01,54,9.20
2012,05,17,01,55,9.20
2012,05,17,01,56,9.10
2012,05,17,01,57,9.10
2012,05,17,01,58,9.10
2012,05,17,01,59,9.10
2012,05,17,02,00,9.10
2012,05,17,02,01,9.00
2012,05,17,02,02,9.00
2012,05,17,02,03,9.00
2012,05,17,02,04,9.00
2012,05,17,02,05,9.00
2012,05,17,02,06,9.00
2012,05,17,02,07,8.90
2012,05,17,02,08,8.90
2012,05,17,02,09,8.90
2012,05,17,02,10,8.90
2012,05,17,02,11,8.90
2012,05,17,02,12,8.90
2012,05,17,02,13,8.90
2012,05,17,02,14,8.90
2012,05,17,02,15,8.80
2012,05,17,02,16,8.80
2012,05,17,02,17,8.80
2012,05,17,02,18,8.80
2012,05,17,02,19,8.80
2012,05,17,02,20,8.70
2012,05,17,02,21,8.70
2012,05,17,02,22,8.70
2012,05,17,02,23,8.70
2012,05,17,02,24,8.70
2012,05,17,02,25,8.70
2012,05,17,02,26,8.70
2012,05,17,02,27,8.70
2012,05,17,02,28,8.70
2012,05,17,02,29,8.70
2012,05,17,02,30,8.70
2012,05,17,02,31,8.70
2012,05,17,02,32,8.70
2012,05,17,02,33,8.70
2012,05,17,02,34,8.70
2012,05,17,02,35,8.70
2012,05,17,02,36,8.70
2012,05,17,02,37,8.70
2012,05,17,02,38,8.60
2012,05,17,02,39,8.60
2012,05,17,02,40,8.60
2012,05,17,02,41,8.60
2012,05,17,02,42,8.60
2012,05,17,02,43,8.60
2012,05,17,02,44,8.50
2012,05,17,02,45,8.50
2012,05,17,02,46,8.50
2012,05,17,02,47,8.50
2012,05,17,02,48,8.50
2012,05,17,02,49,8.50
2012,05,17,02,50,8.50
2012,05,17,02,51,8.50
2012,05,17,02,52,8.50
2012,05,17,02,53,8.50
2012,05,17,02,54,8.50
2012,05,17,02,55,8.50
2012,05,17,02,56,8.50
2012,05,17,02,57,8.50
2012,05,17,02,58,8.40
2012,05,17,02,59,8.40
2012,05,17,03,00,8.40
2012,05,17,03,01,8.40
2012,05,17,03,02,8.40
2012,05,17,03,03,8.40
2012,05,17,03,04,8.40
2012,05,17,03,05,8.30
2012,05,17,03,06,8.30
2012,05,17,03,07,8.30
2012,05,17,03,08,8.30
2012,05,17,03,09,8.30
2012,05,17,03,10,8.30
2012,05,17,03,11,8.30
2012,05,17,03,12,8.30
2012,05,17,03,13,8.30
2012,05,17,03,14,8.30
2012,05,17,03,15,8.30
2012,05,17,03,16,8.20
2012,05,17,03,17,8.20
2012,05,17,03,18,8.20
2012,05,17,03,19,8.20
2012,05,17,03,20,8.20
2012,05,17,03,21,8.20
2012,05,17,03,22,8.20
2012,05,17,03,23,8.20
2012,05,17,03,24,8.20
2012,05,17,03,25,8.20
2012,05,17,03,26,8.20
2012,05,17,03,27,8.20
2012,05,17,03,28,8.20
2012,05,17,03,29,8.20
2012,05,17,03,30,8.20
2012,05,17,03,31,8.20
2012,05,17,03,32,8.20
2012,05,17,03,33,8.20
2012,05,17,03,34,8.20
2012,05,17,03,35,8.20
2012,05,17,03,36,8.20
2012,05,17,03,37,8.20
2012,05,17,03,38,8.20
2012,05,17,03,39,8.20
2012,05,17,03,40,8.20
2012,05,17,03,41,8.20
2012,05,17,03,42,8.20
2012,05,17,03,43,8.20
2012,05,17,03,44,8.20
2012,05,17,03,45,8.20
2012,05,17,03,46,8.20
2012,05,17,03,47,8.20
2012,05,17,03,48,8.20
2012,05,17,03,49,8.20
2012,05,17,03,50,8.20
2012,05,17,03,51,8.20
2012,05,17,03,52,8.20
2012,05,17,03,53,8.20
2012,05,17,03,54,8.20
2012,05,17,03,55,8.10
2012,05,17,03,56,8.10
2012,05,17,03,57,8.10
2012,05,17,03,58,8.10
2012,05,17,03,59,8.10
2012,05,17,04,00,8.10
2012,05,17,04,01,8.10
2012,05,17,04,02,8.10
2012,05,17,04,03,8.10
2012,05,17,04,04,8.10
2012,05,17,04,05,8.10
2012,05,17,04,06,8.10
2012,05,17,04,07,8.10
2012,05,17,04,08,8.10
2012,05,17,04,09,8.10
2012,05,17,04,10,8.10
2012,05,17,04,11,8.10
2012,05,17,04,12,8.10
2012,05,17,04,13,8.10
2012,05,17,04,14,8.20
2012,05,17,04,15,8.20
2012,05,17,04,16,8.20
2012,05,17,04,17,8.10
2012,05,17,04,18,8.10
2012,05,17,04,19,8.10
2012,05,17,04,20,8.00
2012,05,17,04,21,8.00
2012,05,17,04,22,8.00
2012,05,17,04,23,8.00
2012,05,17,04,24,7.90
2012,05,17,04,25,7.90
2012,05,17,04,26,7.90
2012,05,17,04,27,7.90
2012,05,17,04,28,7.90
2012,05,17,04,29,7.90
2012,05,17,04,30,7.80
2012,05,17,04,31,7.80
2012,05,17,04,32,7.80
2012,05,17,04,33,7.80
2012,05,17,04,34,7.80
2012,05,17,04,35,7.80
2012,05,17,04,36,7.80
2012,05,17,04,37,7.70
2012,05,17,04,38,7.70
2012,05,17,04,39,7.70
2012,05,17,04,40,7.70
2012,05,17,04,41,7.70
2012,05,17,04,42,7.70
2012,05,17,04,43,7.70
2012,05,17,04,44,7.70
2012,05,17,04,45,7.70
2012,05,17,04,46,7.70
2012,05,17,04,47,7.60
2012,05,17,04,48,7.60
2012,05,17,04,49,7.60
2012,05,17,04,50,7.60
2012,05,17,04,51,7.60
2012,05,17,04,52,7.60
2012,05,17,04,53,7.60
2012,05,17,04,54,7.60
2012,05,17,04,55,7.60
2012,05,17,04,56,7.60
2012,05,17,04,57,7.60
2012,05,17,04,58,7.60
2012,05,17,04,59,7.60
2012,05,17,05,00,7.60
2012,05,17,05,01,7.50
2012,05,17,05,02,7.50
2012,05,17,05,03,7.50
2012,05,17,05,04,7.50
2012,05,17,05,05,7.50
2012,05,17,05,06,7.50
2012,05,17,05,07,7.50
2012,05,17,05,08,7.50
2012,05,17,05,09,7.50
2012,05,17,05,10,7.50
2012,05,17,05,11,7.50
2012,05,17,05,12,7.50
2012,05,17,05,13,7.50
2012,05,17,05,14,7.50
2012,05,17,05,15,7.50
2012,05,17,05,16,7.50
2012,05,17,05,17,7.50
2012,05,17,05,18,7.60
2012,05,17,05,19,7.60
2012,05,17,05,20,7.60
2012,05,17,05,21,7.60
2012,05,17,05,22,7.60
2012,05,17,05,23,7.70
2012,05,17,05,24,7.70
2012,05,17,05,25,7.70
2012,05,17,05,26,7.70
2012,05,17,05,27,7.80
2012,05,17,05,28,7.80
2012,05,17,05,29,7.80
2012,05,17,05,30,7.80
2012,05,17,05,31,7.80
2012,05,17,05,32,7.90
2012,05,17,05,33,7.90
2012,05,17,05,34,7.90
2012,05,17,05,35,7.90
2012,05,17,05,36,7.90
2012,05,17,05,37,7.90
2012,05,17,05,38,8.00
2012,05,17,05,39,8.00
2012,05,17,05,40,8.00
2012,05,17,05,41,8.00
2012,05,17,05,42,8.00
2012,05,17,05,43,8.00
2012,05,17,05,44,8.10
2012,05,17,05,45,8.10
2012,05,17,05,46,8.10
2012,05,17,05,47,8.10
2012,05,17,05,48,8.10
2012,05,17,05,49,8.20
2012,05,17,05,50,8.20
2012,05,17,05,51,8.20
2012,05,17,05,52,8.20
2012,05,17,05,53,8.20
2012,05,17,05,54,8.20
2012,05,17,05,55,8.20
2012,05,17,05,56,8.20
2012,05,17,05,57,8.20
2012,05,17,05,58,8.20
2012,05,17,05,59,8.20
2012,05,17,06,00,8.20
2012,05,17,06,01,8.20
2012,05,17,06,02,8.20
2012,05,17,06,03,8.20
2012,05,17,06,04,8.20
2012,05,17,06,05,8.20
2012,05,17,06,06,8.20
2012,05,17,06,07,8.20
2012,05,17,06,08,8.20
2012,05,17,06,09,8.20
2012,05,17,06,10,8.20
2012,05,17,06,11,8.20
2012,05,17,06,12,8.20
2012,05,17,06,13,8.20
2012,05,17,06,14,8.20
2012,05,17,06,15,8.20
2012,05,17,06,16,8.20
2012,05,17,06,17,8.20
2012,05,17,06,18,8.20
2012,05,17,06,19,8.20
2012,05,17,06,20,8.20
2012,05,17,06,21,8.20
2012,05,17,06,22,8.20
2012,05,17,06,23,8.20
2012,05,17,06,24,8.20
2012,05,17,06,25,8.20
2012,05,17,06,26,8.20
2012,05,17,06,27,8.20
2012,05,17,06,28,8.20
2012,05,17,06,29,8.20
2012,05,17,06,30,8.20
2012,05,17,06,31,8.30
2012,05,17,06,32,8.30
2012,05,17,06,33,8.30
2012,05,17,06,34,8.40
2012,05,17,06,35,8.40
2012,05,17,06,36,8.40
2012,05,17,06,37,8.40
2012,05,17,06,38,8.40
2012,05,17,06,39,8.50
2012,05,17,06,40,8.50
2012,05,17,06,41,8.50
2012,05,17,06,42,8.50
2012,05,17,06,43,8.50
2012,05,17,06,44,8.50
2012,05,17,06,45,8.50
2012,05,17,06,46,8.50
2012,05,17,06,47,8.50
2012,05,17,06,48,8.60
2012,05,17,06,49,8.60
2012,05,17,06,50,8.60
2012,05,17,06,51,8.60
2012,05,17,06,52,8.60
2012,05,17,06,53,8.60
2012,05,17,06,54,8.60
2012,05,17,06,55,8.60
2012,05,17,06,56,8.70
2012,05,17,06,57,8.70
2012,05,17,06,58,8.70
2012,05,17,06,59,8.80
2012,05,17,07,00,8.90
2012,05,17,07,01,8.90
2012,05,17,07,02,9.00
2012,05,17,07,03,9.10
2012,05,17,07,04,9.20
2012,05,17,07,05,9.30
2012,05,17,07,06,9.30
2012,05,17,07,07,9.40
2012,05,17,07,08,9.50
2012,05,17,07,09,9.50
2012,05,17,07,10,9.60
2012,05,17,07,11,9.70
2012,05,17,07,12,9.80
2012,05,17,07,13,9.80
2012,05,17,07,14,9.90
2012,05,17,07,15,9.90
2012,05,17,07,16,10.00
2012,05,17,07,17,10.10
2012,05,17,07,18,10.10
2012,05,17,07,19,10.20
2012,05,17,07,20,10.20
2012,05,17,07,21,10.30
2012,05,17,07,22,10.40
2012,05,17,07,23,10.40
2012,05,17,07,24,10.50
2012,05,17,07,25,10.60
2012,05,17,07,26,10.60
2012,05,17,07,27,10.70
2012,05,17,07,28,10.80
2012,05,17,07,29,10.90
2012,05,17,07,30,10.90
2012,05,17,07,31,10.90
2012,05,17,07,32,10.90
2012,05,17,07,33,11.00
2012,05,17,07,34,11.10
2012,05,17,07,35,11.10
2012,05,17,07,36,11.20
2012,05,17,07,37,11.20
2012,05,17,07,38,11.20
2012,05,17,07,39,11.30
2012,05,17,07,40,11.30
2012,05,17,07,41,11.30
2012,05,17,07,42,11.30
2012,05,17,07,43,11.40
2012,05,17,07,44,11.40
2012,05,17,07,45,11.50
2012,05,17,07,46,11.60
2012,05,17,07,47,11.60
2012,05,17,07,48,11.60
2012,05,17,07,49,11.60
2012,05,17,07,50,11.60
2012,05,17,07,51,11.60
2012,05,17,07,52,11.60
2012,05,17,07,53,11.60
2012,05,17,07,54,11.60
2012,05,17,07,55,11.60
2012,05,17,07,56,11.60
2012,05,17,07,57,11.60
2012,05,17,07,58,11.70
2012,05,17,07,59,11.60
2012,05,17,08,00,11.70
2012,05,17,08,01,11.70
2012,05,17,08,02,11.70
2012,05,17,08,03,11.80
2012,05,17,08,04,11.90
2012,05,17,08,05,12.00
2012,05,17,08,06,12.10
2012,05,17,08,07,12.10
2012,05,17,08,08,12.10
2012,05,17,08,09,12.00
2012,05,17,08,10,11.90
2012,05,17,08,11,11.80
2012,05,17,08,12,11.80
2012,05,17,08,13,11.90
2012,05,17,08,14,11.90
2012,05,17,08,15,12.00
2012,05,17,08,16,12.10
2012,05,17,08,17,12.20
2012,05,17,08,18,12.20
2012,05,17,08,19,12.20
2012,05,17,08,20,12.30
2012,05,17,08,21,12.30
2012,05,17,08,22,12.30
2012,05,17,08,23,12.30
2012,05,17,08,24,12.30
2012,05,17,08,25,12.30
2012,05,17,08,26,12.30
2012,05,17,08,27,12.20
2012,05,17,08,28,12.20
2012,05,17,08,29,12.20
2012,05,17,08,30,12.30
2012,05,17,08,31,12.30
2012,05,17,08,32,12.20
2012,05,17,08,33,12.20
2012,05,17,08,34,12.30
2012,05,17,08,35,12.30
2012,05,17,08,36,12.40
2012,05,17,08,37,12.40
2012,05,17,08,38,12.50
2012,05,17,08,39,12.50
2012,05,17,08,40,12.40
2012,05,17,08,41,12.40
2012,05,17,08,42,12.50
2012,05,17,08,43,12.50
2012,05,17,08,44,12.50
2012,05,17,08,45,12.60
2012,05,17,08,46,12.60
2012,05,17,08,47,12.50
2012,05,17,08,48,12.50
2012,05,17,08,49,12.50
2012,05,17,08,50,12.50
2012,05,17,08,51,12.50
2012,05,17,08,52,12.50
2012,05,17,08,53,12.40
2012,05,17,08,54,12.40
2012,05,17,08,55,12.30
2012,05,17,08,56,12.30
2012,05,17,08,57,12.30
2012,05,17,08,58,12.50
2012,05,17,08,59,12.60
2012,05,17,09,00,12.60
2012,05,17,09,01,12.60
2012,05,17,09,02,12.60
2012,05,17,09,03,12.70
2012,05,17,09,04,12.70
2012,05,17,09,05,12.80
2012,05,17,09,06,12.80
2012,05,17,09,07,12.80
2012,05,17,09,08,12.80
2012,05,17,09,09,12.80
2012,05,17,09,10,12.70
2012,05,17,09,11,12.70
2012,05,17,09,12,12.70
2012,05,17,09,13,12.70
2012,05,17,09,14,12.60
2012,05,17,09,15,12.60
2012,05,17,09,16,12.70
2012,05,17,09,17,12.70
2012,05,17,09,18,12.70
2012,05,17,09,19,12.70
2012,05,17,09,20,12.70
2012,05,17,09,21,12.80
2012,05,17,09,22,12.80
2012,05,17,09,23,12.80
2012,05,17,09,24,12.80
2012,05,17,09,25,12.80
2012,05,17,09,26,12.70
2012,05,17,09,27,12.70
2012,05,17,09,28,12.60
2012,05,17,09,29,12.60
2012,05,17,09,30,12.60
2012,05,17,09,31,12.60
2012,05,17,09,32,12.60
2012,05,17,09,33,12.50
2012,05,17,09,34,12.50
2012,05,17,09,35,12.50
2012,05,17,09,36,12.50
2012,05,17,09,37,12.40
2012,05,17,09,38,12.30
2012,05,17,09,39,12.40
2012,05,17,09,40,12.50
2012,05,17,09,41,12.60
2012,05,17,09,42,12.70
2012,05,17,09,43,12.80
2012,05,17,09,44,12.90
2012,05,17,09,45,12.80
2012,05,17,09,46,12.80
2012,05,17,09,47,12.70
2012,05,17,09,48,12.60
2012,05,17,09,49,12.50
2012,05,17,09,50,12.50
2012,05,17,09,51,12.50
2012,05,17,09,52,12.50
2012,05,17,09,53,12.60
2012,05,17,09,54,12.60
2012,05,17,09,55,12.60
2012,05,17,09,56,12.50
2012,05,17,09,57,12.50
2012,05,17,09,58,12.60
2012,05,17,09,59,12.60
2012,05,17,10,00,12.60
2012,05,17,10,01,12.70
2012,05,17,10,02,12.70
2012,05,17,10,03,12.60
2012,05,17,10,04,12.60
2012,05,17,10,05,12.50
2012,05,17,10,06,12.50
2012,05,17,10,07,12.40
2012,05,17,10,08,12.50
2012,05,17,10,09,12.50
2012,05,17,10,10,12.50
2012,05,17,10,11,12.60
2012,05,17,10,12,12.80
2012,05,17,10,13,12.80
2012,05,17,10,14,12.80
2012,05,17,10,15,12.90
2012,05,17,10,16,12.90
2012,05,17,10,17,12.90
2012,05,17,10,18,13.00
2012,05,17,10,19,12.90
2012,05,17,10,20,12.90
2012,05,17,10,21,13.00
2012,05,17,10,22,12.90
2012,05,17,10,23,12.90
2012,05,17,10,24,12.80
2012,05,17,10,25,12.80
2012,05,17,10,26,12.80
2012,05,17,10,27,12.80
2012,05,17,10,28,12.80
2012,05,17,10,29,12.90
2012,05,17,10,30,13.00
2012,05,17,10,31,13.00
2012,05,17,10,32,13.10
2012,05,17,10,33,13.00
2012,05,17,10,34,13.00
2012,05,17,10,35,12.80
2012,05,17,10,36,12.80
2012,05,17,10,37,12.80
2012,05,17,10,38,12.90
2012,05,17,10,39,12.90
2012,05,17,10,40,12.80
2012,05,17,10,41,12.80
2012,05,17,10,42,12.90
2012,05,17,10,43,13.00
2012,05,17,10,44,13.20
2012,05,17,10,45,13.20
2012,05,17,10,46,13.10
2012,05,17,10,47,13.00
2012,05,17,10,48,13.00
2012,05,17,10,49,12.90
2012,05,17,10,50,12.80
2012,05,17,10,51,13.00
2012,05,17,10,52,13.00
2012,05,17,10,53,13.10
2012,05,17,10,54,13.10
2012,05,17,10,55,13.10
2012,05,17,10,56,13.00
2012,05,17,10,57,13.00
2012,05,17,10,58,13.00
2012,05,17,10,59,13.10
2012,05,17,11,00,13.10
2012,05,17,11,01,13.20
2012,05,17,11,02,13.20
2012,05,17,11,03,13.30
2012,05,17,11,04,13.30
2012,05,17,11,05,13.30
2012,05,17,11,06,13.20
2012,05,17,11,07,13.20
2012,05,17,11,08,13.20
2012,05,17,11,09,13.10
2012,05,17,11,10,13.00
2012,05,17,11,11,13.00
2012,05,17,11,12,13.00
2012,05,17,11,13,13.00
2012,05,17,11,14,13.00
2012,05,17,11,15,13.00
2012,05,17,11,16,13.10
2012,05,17,11,17,13.20
2012,05,17,11,18,13.30
2012,05,17,11,19,13.30
2012,05,17,11,20,13.30
2012,05,17,11,21,13.50
2012,05,17,11,22,13.60
2012,05,17,11,23,13.50
2012,05,17,11,24,13.40
2012,05,17,11,25,13.30
2012,05,17,11,26,13.30
2012,05,17,11,27,13.40
2012,05,17,11,28,13.40
2012,05,17,11,29,13.40
2012,05,17,11,30,13.30
2012,05,17,11,31,13.20
2012,05,17,11,32,13.10
2012,05,17,11,33,13.10
2012,05,17,11,34,13.20
2012,05,17,11,35,13.20
2012,05,17,11,36,13.10
2012,05,17,11,37,13.10
2012,05,17,11,38,13.20
2012,05,17,11,39,13.10
2012,05,17,11,40,13.20
2012,05,17,11,41,13.30
2012,05,17,11,42,13.40
2012,05,17,11,43,13.50
2012,05,17,11,44,13.60
2012,05,17,11,45,13.70
2012,05,17,11,46,13.60
2012,05,17,11,47,13.60
2012,05,17,11,48,13.50
2012,05,17,11,49,13.50
2012,05,17,11,50,13.40
2012,05,17,11,51,13.50
2012,05,17,11,52,13.40
2012,05,17,11,53,13.40
2012,05,17,11,54,13.50
2012,05,17,11,55,13.50
2012,05,17,11,56,13.50
2012,05,17,11,57,13.50
2012,05,17,11,58,13.40
2012,05,17,11,59,13.40
2012,05,17,12,00,13.40
2012,05,17,12,01,13.50
2012,05,17,12,02,13.50
2012,05,17,12,03,13.50
2012,05,17,12,04,13.40
2012,05,17,12,05,13.40
2012,05,17,12,06,13.50
2012,05,17,12,07,13.50
2012,05,17,12,08,13.60
2012,05,17,12,09,13.50
2012,05,17,12,10,13.50
2012,05,17,12,11,13.50
2012,05,17,12,12,13.50
2012,05,17,12,13,13.60
2012,05,17,12,14,13.70
2012,05,17,12,15,13.80
2012,05,17,12,16,13.90
2012,05,17,12,17,13.90
2012,05,17,12,18,13.90
2012,05,17,12,19,13.90
2012,05,17,12,20,14.00
2012,05,17,12,21,13.90
2012,05,17,12,22,13.90
2012,05,17,12,23,13.70
2012,05,17,12,24,13.70
2012,05,17,12,25,13.60
2012,05,17,12,26,13.50
2012,05,17,12,27,13.40
2012,05,17,12,28,13.40
2012,05,17,12,29,13.40
2012,05,17,12,30,13.30
2012,05,17,12,31,13.30
2012,05,17,12,32,13.30
2012,05,17,12,33,13.20
2012,05,17,12,34,13.10
2012,05,17,12,35,13.20
2012,05,17,12,36,13.20
2012,05,17,12,37,13.30
2012,05,17,12,38,13.30
2012,05,17,12,39,13.40
2012,05,17,12,40,13.50
2012,05,17,12,41,13.60
2012,05,17,12,42,13.70
2012,05,17,12,43,13.70
2012,05,17,12,44,13.60
2012,05,17,12,45,13.50
2012,05,17,12,46,13.40
2012,05,17,12,47,13.30
2012,05,17,12,48,13.30
2012,05,17,12,49,13.20
2012,05,17,12,50,13.10
2012,05,17,12,51,13.10
2012,05,17,12,52,13.00
2012,05,17,12,53,12.90
2012,05,17,12,54,12.90
2012,05,17,12,55,12.90
2012,05,17,12,56,12.90
2012,05,17,12,57,12.90
2012,05,17,12,58,12.90
2012,05,17,12,59,12.90
2012,05,17,13,00,12.80
2012,05,17,13,01,12.80
2012,05,17,13,02,12.80
2012,05,17,13,03,12.90
2012,05,17,13,04,13.00
2012,05,17,13,05,13.00
2012,05,17,13,06,13.00
2012,05,17,13,07,12.90
2012,05,17,13,08,12.90
2012,05,17,13,09,12.80
2012,05,17,13,10,12.80
2012,05,17,13,11,12.80
2012,05,17,13,12,12.80
2012,05,17,13,13,12.80
2012,05,17,13,14,12.80
2012,05,17,13,15,12.80
2012,05,17,13,16,12.80
2012,05,17,13,17,12.80
2012,05,17,13,18,12.80
2012,05,17,13,19,12.80
2012,05,17,13,20,12.80
2012,05,17,13,21,12.80
2012,05,17,13,22,12.80
2012,05,17,13,23,12.80
2012,05,17,13,24,12.70
2012,05,17,13,25,12.80
2012,05,17,13,26,12.80
2012,05,17,13,27,12.80
2012,05,17,13,28,12.80
2012,05,17,13,29,12.70
2012,05,17,13,30,12.70
2012,05,17,13,31,12.80
2012,05,17,13,32,12.80
2012,05,17,13,33,12.80
2012,05,17,13,34,12.80
2012,05,17,13,35,12.90
2012,05,17,13,36,12.90
2012,05,17,13,37,13.00
2012,05,17,13,38,13.00
2012,05,17,13,39,13.10
2012,05,17,13,40,13.10
2012,05,17,13,41,13.10
2012,05,17,13,42,13.10
2012,05,17,13,43,13.10
2012,05,17,13,44,13.00
2012,05,17,13,45,13.00
2012,05,17,13,46,12.90
2012,05,17,13,47,12.90
2012,05,17,13,48,12.90
2012,05,17,13,49,12.80
2012,05,17,13,50,12.80
2012,05,17,13,51,12.70
2012,05,17,13,52,12.80
2012,05,17,13,53,12.80
2012,05,17,13,54,12.80
2012,05,17,13,55,12.90
2012,05,17,13,56,12.90
2012,05,17,13,57,12.90
2012,05,17,13,58,12.80
2012,05,17,13,59,12.80
2012,05,17,14,00,12.80
2012,05,17,14,01,12.80
2012,05,17,14,02,12.80
2012,05,17,14,03,12.80
2012,05,17,14,04,12.80
2012,05,17,14,05,12.70
2012,05,17,14,06,12.70
2012,05,17,14,07,12.70
2012,05,17,14,08,12.70
2012,05,17,14,09,12.70
2012,05,17,14,10,12.70
2012,05,17,14,11,12.70
2012,05,17,14,12,12.70
2012,05,17,14,13,12.70
2012,05,17,14,14,12.70
2012,05,17,14,15,12.80
2012,05,17,14,16,13.00
2012,05,17,14,17,13.00
2012,05,17,14,18,13.00
2012,05,17,14,19,12.90
2012,05,17,14,20,12.90
2012,05,17,14,21,12.90
2012,05,17,14,22,12.90
2012,05,17,14,23,12.80
2012,05,17,14,24,12.80
2012,05,17,14,25,12.80
2012,05,17,14,26,12.70
2012,05,17,14,27,12.60
2012,05,17,14,28,12.80
2012,05,17,14,29,13.00
2012,05,17,14,30,13.00
2012,05,17,14,31,12.90
2012,05,17,14,32,12.90
2012,05,17,14,33,12.90
2012,05,17,14,34,12.80
2012,05,17,14,35,12.80
2012,05,17,14,36,12.80
2012,05,17,14,37,12.80
2012,05,17,14,38,12.90
2012,05,17,14,39,12.90
2012,05,17,14,40,13.00
2012,05,17,14,41,13.00
2012,05,17,14,42,13.10
2012,05,17,14,43,13.10
2012,05,17,14,44,13.10
2012,05,17,14,45,13.10
2012,05,17,14,46,13.10
2012,05,17,14,47,13.00
2012,05,17,14,48,13.00
2012,05,17,14,49,13.00
2012,05,17,14,50,13.00
2012,05,17,14,51,12.90
2012,05,17,14,52,12.90
2012,05,17,14,53,12.90
2012,05,17,14,54,12.80
2012,05,17,14,55,12.80
2012,05,17,14,56,12.80
2012,05,17,14,57,12.70
2012,05,17,14,58,12.60
2012,05,17,14,59,12.60
2012,05,17,15,00,12.50
2012,05,17,15,01,12.60
2012,05,17,15,02,12.60
2012,05,17,15,03,12.60
2012,05,17,15,04,12.70
2012,05,17,15,05,12.80
2012,05,17,15,06,12.80
2012,05,17,15,07,12.80
2012,05,17,15,08,12.80
2012,05,17,15,09,12.80
2012,05,17,15,10,12.90
2012,05,17,15,11,12.90
2012,05,17,15,12,12.90
2012,05,17,15,13,12.90
2012,05,17,15,14,12.90
2012,05,17,15,15,13.00
2012,05,17,15,16,13.10
2012,05,17,15,17,13.10
2012,05,17,15,18,13.00
2012,05,17,15,19,13.00
2012,05,17,15,20,13.00
2012,05,17,15,21,13.00
2012,05,17,15,22,13.00
2012,05,17,15,23,13.10
2012,05,17,15,24,13.00
2012,05,17,15,25,12.90
2012,05,17,15,26,12.90
2012,05,17,15,27,12.90
2012,05,17,15,28,13.00
2012,05,17,15,29,13.00
2012,05,17,15,30,13.10
2012,05,17,15,31,13.10
2012,05,17,15,32,13.10
2012,05,17,15,33,13.20
2012,05,17,15,34,13.30
2012,05,17,15,35,13.30
2012,05,17,15,36,13.40
2012,05,17,15,37,13.40
2012,05,17,15,38,13.50
2012,05,17,15,39,13.50
2012,05,17,15,40,13.50
2012,05,17,15,41,13.50
2012,05,17,15,42,13.50
2012,05,17,15,43,13.50
2012,05,17,15,44,13.50
2012,05,17,15,45,13.40
2012,05,17,15,46,13.40
2012,05,17,15,47,13.40
2012,05,17,15,48,13.40
2012,05,17,15,49,13.40
2012,05,17,15,50,13.40
2012,05,17,15,51,13.40
2012,05,17,15,52,13.40
2012,05,17,15,53,13.40
2012,05,17,15,54,13.40
2012,05,17,15,55,13.40
2012,05,17,15,56,13.30
2012,05,17,15,57,13.30
2012,05,17,15,58,13.30
2012,05,17,15,59,13.30
2012,05,17,16,00,13.30
2012,05,17,16,01,13.30
2012,05,17,16,02,13.30
2012,05,17,16,03,13.30
2012,05,17,16,04,13.30
2012,05,17,16,05,13.30
2012,05,17,16,06,13.30
2012,05,17,16,07,13.30
2012,05,17,16,08,13.30
2012,05,17,16,09,13.30
2012,05,17,16,10,13.50
2012,05,17,16,11,13.60
2012,05,17,16,12,13.70
2012,05,17,16,13,13.70
2012,05,17,16,14,13.80
2012,05,17,16,15,13.80
2012,05,17,16,16,13.80
2012,05,17,16,17,13.70
2012,05,17,16,18,13.60
2012,05,17,16,19,13.50
2012,05,17,16,20,13.40
2012,05,17,16,21,13.40
2012,05,17,16,22,13.40
2012,05,17,16,23,13.30
2012,05,17,16,24,13.30
2012,05,17,16,25,13.30
2012,05,17,16,26,13.30
2012,05,17,16,27,13.40
2012,05,17,16,28,13.40
2012,05,17,16,29,13.30
2012,05,17,16,30,13.30
2012,05,17,16,31,13.30
2012,05,17,16,32,13.40
2012,05,17,16,33,13.40
2012,05,17,16,34,13.40
2012,05,17,16,35,13.40
2012,05,17,16,36,13.50
2012,05,17,16,37,13.50
2012,05,17,16,38,13.50
2012,05,17,16,39,13.50
2012,05,17,16,40,13.50
2012,05,17,16,41,13.50
2012,05,17,16,42,13.50
2012,05,17,16,43,13.50
2012,05,17,16,44,13.50
2012,05,17,16,45,13.60
2012,05,17,16,46,13.70
2012,05,17,16,47,13.80
2012,05,17,16,48,13.90
2012,05,17,16,49,13.90
2012,05,17,16,50,14.00
2012,05,17,16,51,14.00
2012,05,17,16,52,14.10
2012,05,17,16,53,14.10
2012,05,17,16,54,14.10
2012,05,17,16,55,14.20
2012,05,17,16,56,14.20
2012,05,17,16,57,14.20
2012,05,17,16,58,14.10
2012,05,17,16,59,14.00
2012,05,17,17,00,14.00
2012,05,17,17,01,14.10
2012,05,17,17,02,14.10
2012,05,17,17,03,14.10
2012,05,17,17,04,14.20
2012,05,17,17,05,14.20
2012,05,17,17,06,14.20
2012,05,17,17,07,14.30
2012,05,17,17,08,14.40
2012,05,17,17,09,14.40
2012,05,17,17,10,14.50
2012,05,17,17,11,14.50
2012,05,17,17,12,14.50
2012,05,17,17,13,14.60
2012,05,17,17,14,14.60
2012,05,17,17,15,14.70
2012,05,17,17,16,14.70
2012,05,17,17,17,14.70
2012,05,17,17,18,14.80
2012,05,17,17,19,14.80
2012,05,17,17,20,14.80
2012,05,17,17,21,14.80
2012,05,17,17,22,14.80
2012,05,17,17,23,14.80
2012,05,17,17,24,14.80
2012,05,17,17,25,14.70
2012,05,17,17,26,14.70
2012,05,17,17,27,14.60
2012,05,17,17,28,14.60
2012,05,17,17,29,14.50
2012,05,17,17,30,14.40
2012,05,17,17,31,14.40
2012,05,17,17,32,14.40
2012,05,17,17,33,14.30
2012,05,17,17,34,14.20
2012,05,17,17,35,14.20
2012,05,17,17,36,14.20
2012,05,17,17,37,14.20
2012,05,17,17,38,14.20